{"data":{"norad_id":66221,"epoch":"2026-09-20T16:11:19.970016Z","epoch_age_seconds":81587,"freshness":"FRESH","line1":"1 66221U 25244R   26263.67453669  .00025252  00000+0  75527-3 0  9993","line2":"2 66221  53.1553  42.7360 0001133 103.3401 256.7728 15.34429973 51531","mean_motion":15.34429973,"eccentricity":0.0001133,"inclination_deg":53.1553,"raan_deg":42.736,"arg_perigee_deg":103.3401,"mean_anomaly_deg":256.7728,"bstar":0.00075527,"rev_number":5153,"period_min":93.845924893179,"perigee_km":461.8390984788,"apogee_km":463.38921269066,"semimajor_km":6840.7511555847,"source":"CELESTRAK","updated_at":"2026-09-21T09:00:35.842681Z"}}